Date String (YYYY-MM-DD hh:mm:ss) UTC,Instrument flags,Ambient pressure (hPa),Sample flow (lpm),Bypass flow (lpm),Sample temperature (°C),Ambient temperature (°C),ASC tube jacket temperature (°C),LED temperature (°C),Box temperature (°C),Sample RH (%),Span deviation,Mass concentration (μg/m³),Mass concentration (μg/m³),Mass concentration (μg/m³)
DateTimeUTC,F1_M11,P_M11,Q1_M11,Q2_M11,T1_M11,T2_M11,T3_M11,T4_M11,T5_M11,U1_M11,ZSPAN_M11,X2_M11,X0_M11,X1_M11
2023-04-30 16:00:00,,0831.7,5.01,0.00,26.4,25.2,00.0,34.7,28.0,16.9,0000.0,0004.98,0013.27,0003.70
2023-04-30 16:01:00,,0831.7,5.01,0.00,26.5,25.2,00.0,34.7,28.1,16.9,0000.0,0004.96,0012.45,0003.71
2023-04-30 16:02:00,,0831.7,4.99,0.00,26.5,25.2,00.0,34.7,28.1,17.0,0000.0,0004.97,0012.21,0003.72
2023-04-30 16:03:00,,0831.7,5.00,0.00,26.5,25.2,00.0,34.7,28.1,16.9,0000.0,0004.96,0012.26,0003.73
2023-04-30 16:04:00,,0831.7,5.00,0.00,26.5,25.2,00.0,34.7,28.1,16.9,0000.0,0004.96,0012.08,0003.74
2023-04-30 16:05:00,,0831.7,4.99,0.00,26.5,25.2,00.0,34.7,28.1,16.8,0000.0,0004.93,0012.40,0003.74
2023-04-30 16:06:00,,0831.7,5.01,0.00,26.5,25.2,00.0,34.7,28.1,17.2,0000.0,0004.91,0012.38,0003.74
2023-04-30 16:07:00,,0831.7,5.01,0.00,26.5,25.2,00.0,34.8,28.1,16.9,0000.0,0004.88,0012.16,0003.73
2023-04-30 16:08:00,,0831.7,4.98,0.00,26.6,25.3,00.0,34.8,28.1,16.5,0000.0,0004.91,0011.58,0003.74
2023-04-30 16:09:00,,0831.7,4.99,0.00,26.6,25.3,00.0,34.8,28.2,16.5,0000.0,0004.90,0011.02,0003.73
2023-04-30 16:10:00,,0832.1,5.01,0.00,26.6,25.3,00.0,34.8,28.2,16.3,0000.0,0004.94,0010.50,0003.74
2023-04-30 16:11:00,,0831.8,5.00,0.00,26.6,25.3,00.0,34.8,28.1,16.6,0000.0,0005.03,0010.70,0003.77
2023-04-30 16:12:00,,0831.8,5.00,0.00,26.6,25.3,00.0,34.8,28.1,16.2,0000.0,0005.01,0011.40,0003.76
2023-04-30 16:13:00,,0831.8,5.00,0.00,26.6,25.3,00.0,34.8,28.2,16.5,0000.0,0005.03,0012.18,0003.76
2023-04-30 16:14:00,,0831.8,5.00,0.00,26.6,25.3,00.0,34.9,28.2,16.7,0000.0,0005.09,0012.05,0003.77
2023-04-30 16:15:00,,0831.8,5.00,0.00,26.6,25.3,00.0,34.9,28.2,16.3,0000.0,0005.15,0012.38,0003.76
2023-04-30 16:16:00,,0831.8,4.99,0.00,26.6,25.3,00.0,34.9,28.2,16.3,0000.0,0005.16,0012.48,0003.76
2023-04-30 16:17:00,,0831.8,4.99,0.00,26.7,25.4,00.0,34.9,28.2,16.5,0000.0,0005.14,0013.36,0003.75
2023-04-30 16:18:00,,0831.8,5.01,0.00,26.7,25.4,00.0,34.9,28.2,16.2,0000.0,0005.20,0013.42,0003.76
2023-04-30 16:19:00,,0831.9,5.01,0.00,26.7,25.4,00.0,34.9,28.2,16.3,0000.0,0005.26,0013.61,0003.77
2023-04-30 16:20:00,,0832.2,5.00,0.00,26.7,25.4,00.0,34.9,28.3,16.4,0000.0,0005.24,0013.71,0003.77
2023-04-30 16:21:00,,0831.9,4.99,0.00,26.7,25.4,00.0,34.9,28.3,16.4,0000.0,0005.34,0014.44,0003.77
2023-04-30 16:22:00,,0832.3,5.00,0.00,26.7,25.5,00.0,35.0,28.3,16.2,0000.0,0005.31,0015.57,0003.75
2023-04-30 16:23:00,,0832.1,5.01,0.00,26.7,25.5,00.0,35.0,28.3,15.5,0000.0,0005.31,0014.98,0003.73
2023-04-30 16:24:00,,0831.8,4.99,0.00,26.8,25.5,00.0,35.0,28.4,15.6,0000.0,0005.29,0014.28,0003.72
2023-04-30 16:25:00,,0831.8,5.00,0.00,26.8,25.5,00.0,35.0,28.3,15.8,0000.0,0005.27,0014.73,0003.71
2023-04-30 16:26:00,,0831.8,5.00,0.00,26.8,25.5,00.0,35.0,28.3,15.7,0000.0,0005.20,0014.98,0003.67
2023-04-30 16:27:00,,0831.8,4.99,0.00,26.8,25.5,00.0,35.0,28.4,15.7,0000.0,0005.22,0015.21,0003.66
2023-04-30 16:28:00,,0832.0,5.00,0.00,26.8,25.5,00.0,35.0,28.4,15.9,0000.0,0005.22,0014.65,0003.67
2023-04-30 16:29:00,,0831.8,5.01,0.00,26.8,25.5,00.0,35.1,28.4,15.8,0000.0,0005.17,0014.77,0003.65
2023-04-30 16:30:00,,0831.8,5.01,0.00,26.8,25.6,00.0,35.1,28.4,16.1,0000.0,0005.11,0014.93,0003.63
2023-04-30 16:31:00,,0831.8,5.00,0.00,26.9,25.6,00.0,35.1,28.4,16.5,0000.0,0005.10,0015.31,0003.64
2023-04-30 16:32:00,,0831.9,4.99,0.00,26.9,25.6,00.0,35.1,28.4,16.6,0000.0,0005.13,0015.24,0003.68
2023-04-30 16:33:00,,0831.9,5.00,0.00,26.9,25.6,00.0,35.1,28.5,16.6,0000.0,0005.16,0014.41,0003.72
2023-04-30 16:34:00,,0831.8,5.01,0.00,26.9,25.6,00.0,35.1,28.5,16.7,0000.0,0005.23,0014.42,0003.78
2023-04-30 16:35:00,,0831.8,5.00,0.00,26.9,25.7,00.0,35.1,28.5,16.7,0000.0,0005.26,0014.41,0003.82
2023-04-30 16:36:00,,0831.8,5.00,0.00,26.9,25.7,00.0,35.2,28.5,17.1,0000.0,0005.28,0014.30,0003.85
2023-04-30 16:37:00,,0832.3,5.00,0.00,26.9,25.7,00.0,35.2,28.5,16.7,0000.0,0005.30,0013.61,0003.91
2023-04-30 16:38:00,,0832.2,4.99,0.00,27.0,25.7,00.0,35.2,28.5,16.8,0000.0,0005.36,0013.57,0003.95
2023-04-30 16:39:00,,0832.2,5.00,0.00,27.0,25.7,00.0,35.2,28.6,17.1,0000.0,0005.41,0013.61,0003.99
2023-04-30 16:40:00,,0832.2,5.01,0.00,27.0,25.7,00.0,35.2,28.6,16.9,0000.0,0005.44,0013.44,0004.01
2023-04-30 16:41:00,,0832.0,5.00,0.00,27.0,25.8,00.0,35.2,28.6,16.8,0000.0,0005.49,0013.31,0004.05
2023-04-30 16:42:00,,0832.0,5.01,0.00,27.0,25.8,00.0,35.3,28.6,16.7,0000.0,0005.57,0013.03,0004.09
2023-04-30 16:43:00,,0832.2,5.00,0.00,27.1,25.8,00.0,35.3,28.6,16.8,0000.0,0005.52,0013.06,0004.08
2023-04-30 16:44:00,,0832.3,5.01,0.00,27.1,25.8,00.0,35.3,28.6,16.7,0000.0,0005.43,0012.29,0004.07
2023-04-30 16:45:00,,0832.3,5.00,0.00,27.1,25.8,00.0,35.3,28.6,16.5,0000.0,0005.44,0012.70,0004.07
2023-04-30 16:46:00,,0831.7,5.00,0.00,27.1,25.8,00.0,35.3,28.7,16.5,0000.0,0005.43,0013.47,0004.06
2023-04-30 16:47:00,,0831.8,5.00,0.00,27.1,25.8,00.0,35.3,28.7,16.6,0000.0,0005.46,0013.92,0004.06
2023-04-30 16:48:00,,0831.7,5.00,0.00,27.1,25.9,00.0,35.4,28.7,16.4,0000.0,0005.46,0014.28,0004.07
2023-04-30 16:49:00,,0831.7,4.99,0.00,27.1,25.9,00.0,35.4,28.7,16.3,0000.0,0005.42,0015.86,0004.06
2023-04-30 16:50:00,,0831.7,5.00,0.00,27.1,25.9,00.0,35.4,28.7,16.6,0000.0,0005.41,0016.83,0004.06
2023-04-30 16:51:00,,0831.7,4.99,0.00,27.1,25.9,00.0,35.4,28.7,16.4,0000.0,0005.44,0016.80,0004.07
2023-04-30 16:52:00,,0831.7,5.02,0.00,27.2,25.9,00.0,35.4,28.7,16.2,0000.0,0005.42,0016.65,0004.07
2023-04-30 16:53:00,,0831.7,5.00,0.00,27.2,25.9,00.0,35.4,28.7,16.0,0000.0,0005.39,0016.46,0004.07
2023-04-30 16:54:00,,0831.7,4.99,0.00,27.2,25.9,00.0,35.4,28.8,16.0,0000.0,0005.46,0016.62,0004.07
2023-04-30 16:55:00,,0831.7,4.99,0.00,27.2,25.9,00.0,35.4,28.8,16.1,0000.0,0005.53,0017.27,0004.07
2023-04-30 16:56:00,,0831.7,4.98,0.00,27.2,25.9,00.0,35.5,28.8,16.2,0000.0,0005.47,0016.94,0004.07
2023-04-30 16:57:00,,0831.7,5.03,0.00,27.2,25.9,00.0,35.5,28.8,16.3,0000.0,0005.55,0016.33,0004.09
2023-04-30 16:58:00,,0831.7,5.00,0.00,27.2,25.9,00.0,35.5,28.8,16.1,0000.0,0005.57,0015.87,0004.09
2023-04-30 16:59:00,,0831.7,5.00,0.00,27.2,25.9,00.0,35.5,28.8,16.1,0000.0,0005.62,0015.93,0004.10
